"Pseudo-MPEC" for P225ixJ

Created 2025 Jan 12 3:31:07 UT using Find_Orb

Click here for an explanation of pseudo-MPECs

 
 Astrometry: 
     P225ixJ* C2025 01 06.50047108 17 31.963+63 07 24.44   ~16IV 21.98wXNEOCPF52
     P225ixJ  C2025 01 06.51410508 17 31.223+63 08 24.01   ~16IV 21.94wXNEOCPF52
     P225ixJ  C2025 01 06.52777108 17 30.457+63 09 23.18   ~16IV 22.14wXNEOCPF52

Station data:
(F52) Pan-STARRS 2, Haleakala  (N20.707382 W156.255910)  US/Hawaii.
   Observers J. Bulger, T. Dukes, T. Lowe, A. Schultz, M. Willman. Measurers
   K. Chambers, S. Chastel, T. de Boer, L. Denneau, J. Fairlamb, H.
   Flewelling, M. Huber, C.-C. Lin, E. Magnier, Y. Ramanjooloo, R. Wainscoat,
   R. Weryk. 1.8-m Ritchey-Chrétien + CCD.

Orbital elements:  P225ixJ
   Perihelion 2024 Dec 1.47218 +/- 49.7 TT = 11:19:56 (JD 2460645.97218)
Epoch 2025 Jan  7.0 TT = JDT 2460682.5   Earth MOID: 0.2138      AutoNEOCP
M  16.48544007 +/- 25               (J2000 ecliptic)
n   0.45131189 +/- 0.318            Peri.  349.38386 +/- 90
a   1.68326126 +/- 0.791            Node    89.67480 +/- 57
e   0.2907917 +/- 0.272             Incl.   30.17902 +/- 14
P   2.184/797.659d         H 22.60  G  0.15   U 12.0  SR
q 1.19378272 +/- 0.276    Q 2.17273979 +/- 30.2
From 3 observations 2025 Jan. 6 (39.3 min); mean residual 0".07
Residuals in arcseconds: 
250106 F52  .03-  .05-    250106 F52  .06+  .10+    250106 F52  .05-  .09-    

Ephemerides (geocentric):
Date (UTC) HH   RA             Dec           delta  r     elong  mag " sig PA
---- --------  ------------   ------------  ------ ------ -----  --- --------
2025 01 12 04  08 13 13.008   +69 02 31.64  .34740 1.2439 132.3 22.2  28d  21
2025 01 12 05  08 13 10.482   +69 04 44.06  .34768 1.2440 132.2 22.2  28d  21
2025 01 12 06  08 13 07.948   +69 06 56.14  .34797 1.2441 132.2 22.3  28d  21
2025 01 12 07  08 13 05.405   +69 09 07.89  .34825 1.2442 132.1 22.3  28d  22
2025 01 12 08  08 13 02.853   +69 11 19.31  .34854 1.2443 132.1 22.3  29d  22
2025 01 12 09  08 13 00.292   +69 13 30.39  .34882 1.2444 132.1 22.3  29d  22
2025 01 12 10  08 12 57.723   +69 15 41.15  .34911 1.2445 132.0 22.3  29d  22
2025 01 12 11  08 12 55.145   +69 17 51.57  .34940 1.2446 132.0 22.3  29d  22
2025 01 12 12  08 12 52.558   +69 20 01.66  .34968 1.2447 131.9 22.3  29d  22
2025 01 12 13  08 12 49.962   +69 22 11.42  .34997 1.2448 131.9 22.3  29d  22
2025 01 12 14  08 12 47.358   +69 24 20.86  .35026 1.2449 131.9 22.3  30d  21
2025 01 12 15  08 12 44.744   +69 26 29.96  .35054 1.2450 131.8 22.3  30d  21
2025 01 12 16  08 12 42.122   +69 28 38.74  .35083 1.2451 131.8 22.3  30d  21
2025 01 12 17  08 12 39.492   +69 30 47.18  .35112 1.2452 131.8 22.3  30d  21
2025 01 12 18  08 12 36.852   +69 32 55.30  .35141 1.2453 131.7 22.3  30d  21
2025 01 12 19  08 12 34.204   +69 35 03.09  .35169 1.2454 131.7 22.3  30d  21
2025 01 12 20  08 12 31.548   +69 37 10.56  .35198 1.2455 131.6 22.3  30d  21
2025 01 12 21  08 12 28.882   +69 39 17.70  .35227 1.2456 131.6 22.3  30d  21
2025 01 12 22  08 12 26.208   +69 41 24.52  .35256 1.2457 131.6 22.3  30d  21
2025 01 12 23  08 12 23.526   +69 43 31.01  .35285 1.2458 131.5 22.3  31d  21
2025 01 13 00  08 12 20.834   +69 45 37.17  .35314 1.2459 131.5 22.3  31d  21
2025 01 13 01  08 12 18.134   +69 47 43.01  .35343 1.2460 131.5 22.3  31d  21
2025 01 13 02  08 12 15.426   +69 49 48.53  .35372 1.2461 131.4 22.3  31d  21
2025 01 13 03  08 12 12.708   +69 51 53.73  .35401 1.2462 131.4 22.3  31d  21
2025 01 13 04  08 12 09.983   +69 53 58.60  .35430 1.2463 131.3 22.3  31d  21
2025 01 13 05  08 12 07.248   +69 56 03.15  .35459 1.2464 131.3 22.3  31d  21
2025 01 13 06  08 12 04.505   +69 58 07.38  .35488 1.2465 131.3 22.3  31d  21
2025 01 13 07  08 12 01.754   +70 00 11.29  .35517 1.2465 131.2 22.3  31d  21
2025 01 13 08  08 11 58.994   +70 02 14.88  .35546 1.2466 131.2 22.3  31d  21
2025 01 13 09  08 11 56.225   +70 04 18.15  .35575 1.2467 131.2 22.3  31d  21
2025 01 13 10  08 11 53.448   +70 06 21.10  .35604 1.2468 131.1 22.3  32d  21
2025 01 13 11  08 11 50.663   +70 08 23.73  .35633 1.2469 131.1 22.3  32d  21
2025 01 13 12  08 11 47.868   +70 10 26.04  .35662 1.2470 131.0 22.3  32d  21
2025 01 13 13  08 11 45.066   +70 12 28.04  .35691 1.2471 131.0 22.3  32d  21
2025 01 13 14  08 11 42.255   +70 14 29.72  .35721 1.2472 131.0 22.3  32d  21
2025 01 13 15  08 11 39.435   +70 16 31.08  .35750 1.2473 130.9 22.3  32d  21
2025 01 13 16  08 11 36.607   +70 18 32.12  .35779 1.2474 130.9 22.3  32d  22
2025 01 13 17  08 11 33.771   +70 20 32.85  .35808 1.2475 130.9 22.3  32d  22
2025 01 13 18  08 11 30.926   +70 22 33.27  .35838 1.2476 130.8 22.3  32d  22
2025 01 13 19  08 11 28.073   +70 24 33.36  .35867 1.2477 130.8 22.3  32d  22
2025 01 13 20  08 11 25.211   +70 26 33.15  .35896 1.2478 130.7 22.3  33d  22
2025 01 13 21  08 11 22.341   +70 28 32.62  .35926 1.2479 130.7 22.3  31d  14
2025 01 13 22  08 11 19.463   +70 30 31.78  .35955 1.2480 130.7 22.4  31d  14
2025 01 13 23  08 11 16.576   +70 32 30.63  .35984 1.2481 130.6 22.4  31d  14
2025 01 14 00  08 11 13.681   +70 34 29.16  .36014 1.2482 130.6 22.4  32d  14
2025 01 14 01  08 11 10.778   +70 36 27.38  .36043 1.2483 130.6 22.4  32d  14
2025 01 14 02  08 11 07.866   +70 38 25.29  .36073 1.2484 130.5 22.4  32d  14
2025 01 14 03  08 11 04.946   +70 40 22.89  .36102 1.2485 130.5 22.4  32d  14